Berlin, NH

10:58 PM EST on November 11, 2019 (GMT -0500)
Berlin Municipal

Weather History for KBML - October, 2019

Change the Weather History Date:

Monday, October 21, 2019

  Actual Average Record
Temperature  
Mean Temperature 48 °F -  
Max Temperature 64 °F 49 °F 73 °F (2017)
Min Temperature 33 °F 26 °F 19 °F (1997)
Degree Days  
Heating Degree Days 16    
Moisture  
Dew Point 38 °F    
Average Humidity 85    
Maximum Humidity 96    
Minimum Humidity 46    
Precipitation  
Precipitation 0.00 in - - ()
Sea Level Pressure  
Sea Level Pressure 30.14 in    
Wind  
Wind Speed 0 mph (NNW)    
Max Wind Speed 6 mph    
Max Gust Speed -    
Visibility 4 miles    
Events Fog    
Averages and records for this station are not official NWS values.
T = Trace of Precipitation, MM = Missing Value Source: NWS Daily Summary

Daily Weather History Graph

Daily Weather History Graph

Search for Another Location

Airport or City:

Astronomy

Oct. 21, 2019 Rise Set
Actual Time 7:07 AM EDT 5:50 PM EDT
Civil Twilight 6:37 AM EDT 6:20 PM EDT
Nautical Twilight 6:03 AM EDT 6:54 PM EDT
Astronomical Twilight 5:30 AM EDT 7:27 PM EDT
Moon 11:54 PM EDT (10/21) 2:31 PM EDT (10/21)
Length of Visible Light 11h 42m
Length of Day
10h 43m
Waning Gibbous, 48% of the Moon is Illuminated
Oct 21
Waning Gibbous
Oct 27
New
Nov 4
First Quarter
Nov 12
Full
Nov 19
Last Quarter

Hourly Weather History & Observations

Time (EDT) Temp. Windchill Dew Point Humidity Pressure Visibility Wind Dir Wind Speed Gust Speed Precip Events Conditions
12:52 AM 43.0 °F - 39.9 °F 89% 30.08 in 5.0 mi Calm Calm - N/A   Overcast
1:19 AM 42.1 °F - 39.9 °F 92% 30.06 in 2.5 mi Calm Calm - N/A   Overcast
1:22 AM 42.1 °F - 39.9 °F 92% 30.06 in 1.2 mi Calm Calm - N/A   Overcast
1:24 AM 42.1 °F - 39.9 °F 92% 30.06 in 0.8 mi Calm Calm - N/A   Overcast
1:52 AM 39.9 °F - 37.9 °F 93% 30.09 in 0.2 mi Calm Calm - N/A Fog Fog
2:42 AM 39.9 °F - 37.9 °F 93% 30.08 in 0.2 mi Calm Calm - N/A Fog Fog
2:52 AM 39.9 °F - 37.9 °F 93% 30.11 in 0.2 mi Calm Calm - N/A Fog Fog
3:07 AM 39.9 °F 37.8 °F 37.0 °F 89% 30.08 in 0.2 mi North 3.5 mph - N/A Fog Fog
3:14 AM 39.9 °F 37.8 °F 37.0 °F 89% 30.08 in 0.2 mi North 3.5 mph - N/A Fog Fog
3:52 AM 39.9 °F - 37.9 °F 93% 30.10 in 0.2 mi Calm Calm - N/A Fog Fog
4:52 AM 39.0 °F - 37.0 °F 93% 30.12 in 0.2 mi Calm Calm - N/A Fog Fog
5:52 AM 37.9 °F - 36.0 °F 93% 30.14 in 0.2 mi Calm Calm - N/A Fog Fog
6:52 AM 37.0 °F - 35.1 °F 93% 30.16 in 0.2 mi Calm Calm - N/A Fog Fog
7:52 AM 37.0 °F - 35.1 °F 93% 30.18 in 0.2 mi Calm Calm - N/A Fog Fog
8:52 AM 37.0 °F - 36.0 °F 96% 30.18 in 0.2 mi Calm Calm - N/A Fog Fog
9:52 AM 39.0 °F - 37.0 °F 93% 30.17 in 0.2 mi Calm Calm - N/A Fog Fog
10:41 AM 42.1 °F - 39.9 °F 92% 30.15 in 1.0 mi Calm Calm - N/A   Overcast
10:45 AM 43.0 °F - 39.9 °F 89% 30.15 in 2.0 mi Calm Calm - N/A   Overcast
10:52 AM 43.0 °F - 39.9 °F 89% 30.17 in 2.5 mi Calm Calm - N/A   Overcast
11:17 AM 48.0 °F - 43.0 °F 83% 30.15 in 10.0 mi Calm Calm - N/A   Scattered Clouds
11:52 AM 53.1 °F - 45.0 °F 74% 30.16 in 10.0 mi Variable 3.5 mph - N/A   Clear
12:52 PM 57.9 °F - 43.0 °F 58% 30.15 in 10.0 mi Calm Calm - N/A   Clear
1:52 PM 61.0 °F - 44.1 °F 54% 30.13 in 10.0 mi Variable 3.5 mph - N/A   Clear
2:52 PM 63.0 °F - 43.0 °F 48% 30.12 in 10.0 mi Variable 5.8 mph - N/A   Clear
3:52 PM 64.0 °F - 43.0 °F 46% 30.12 in 10.0 mi NW 3.5 mph - N/A   Clear
4:52 PM 63.0 °F - 43.0 °F 48% 30.13 in 10.0 mi Calm Calm - N/A   Clear
5:52 PM 51.1 °F - 45.0 °F 80% 30.16 in 10.0 mi Calm Calm - N/A   Clear
6:52 PM 46.0 °F - 43.0 °F 89% 30.18 in 10.0 mi Calm Calm - N/A   Clear
7:52 PM 43.0 °F - 39.9 °F 89% 30.20 in 9.0 mi Calm Calm - N/A   Clear
8:52 PM 39.0 °F - 36.0 °F 89% 30.20 in 7.0 mi Calm Calm - N/A   Clear
9:52 PM 37.0 °F - 34.0 °F 89% 30.22 in 8.0 mi Calm Calm - N/A   Clear
10:52 PM 35.1 °F - 32.0 °F 89% 30.22 in 9.0 mi Calm Calm - N/A   Partly Cloudy
11:08 PM 33.1 °F - 30.9 °F 92% 30.18 in 9.0 mi Calm Calm - N/A   Mostly Cloudy
11:46 PM 33.8 °F - 30.2 °F 87% 30.18 in 1.2 mi Calm Calm - N/A   Overcast
11:49 PM 33.8 °F - 30.2 °F 87% 30.18 in 0.8 mi Calm Calm - N/A   Mist
11:52 PM 33.1 °F - 30.9 °F 92% 30.21 in 0.5 mi Calm Calm - N/A Fog Fog
11:56 PM 33.1 °F - 30.9 °F 92% 30.18 in 0.2 mi Calm Calm - N/A Fog Fog